Hourly Data Report for October 16, 2013

All times are specified in Local Standard Time (LST). Add 1 hour to adjust for Daylight Saving Time where and when it is observed.

KAMLOOPS A
BRITISH COLUMBIA

50°42'09.000" N
120°26'55.000" W
345.30 m
1163781
71887
YKA

Download Data

Hourly Data (October 2013)
Hourly Data Report for October 16, 2013
Temp Definition
°C
Dew Point Temp Definition
°C
Rel Hum Definition
%
Wind Dir Definition
10's deg

Wind Spd Definition
km/h
Visibility Definition
km
Stn Press Definition
kPa
Hmdx Definition


Wind Chill Definition


Weather Definition


TIME
00:00 Legend Double Dagger 6.1 4.9 92 9 5 64.4 98.28     LegendNANA
01:00 Legend Double Dagger 5.7 4.7 93 9 15 64.4 98.28     Mostly Cloudy
02:00 Legend Double Dagger 6.0 4.5 90 9 10 64.4 98.28     LegendNANA
03:00 Legend Double Dagger 5.3 4.3 93 5 9 64.4 98.29     LegendNANA
04:00 Legend Double Dagger 4.7 3.7 93 35 1 64.4 98.30     Mostly Cloudy
05:00 Legend Double Dagger 4.3 3.6 95 3 3 48.3 98.31     Fog
06:00 Legend Double Dagger 3.6 3.0 96 2 4 32.2 98.33     Fog
07:00 Legend Double Dagger 2.5 1.6 94 33 3 48.3 98.36     Fog
08:00 Legend Double Dagger 4.0 3.4 96 9 3 48.3 98.37     Fog
09:00 Legend Double Dagger 7.8 4.9 82 12 6 48.3 98.35     LegendNANA
10:00 Legend Double Dagger 9.3 5.5 77 13 9 64.4 98.36     Mainly Clear
11:00 Legend Double Dagger 10.9 5.7 70 10 2 64.4 98.33     LegendNANA
12:00 Legend Double Dagger 12.0 6.1 67 20 4 64.4 98.29     LegendNANA
13:00 Legend Double Dagger 12.4 6.5 67 22 5 64.4 98.27     Rain Showers
14:00 Legend Double Dagger 14.1 6.3 59 14 5 64.4 98.25     LegendNANA
15:00 Legend Double Dagger 14.2 5.1 54 4 1 64.4 98.22     LegendNANA
16:00 Legend Double Dagger 13.3 5.8 60 16 6 64.4 98.17     Mainly Clear
17:00 Legend Double Dagger 11.8 5.5 65 34 3 56.3 98.19     LegendNANA
18:00 Legend Double Dagger 10.0 5.0 71 25 4 64.4 98.21     LegendNANA
19:00 Legend Double Dagger 9.0 3.6 69 6 7 64.4 98.25     Mainly Clear
20:00 Legend Double Dagger 6.2 2.5 77 28 3 64.4 98.30     LegendNANA
21:00 Legend Double Dagger 5.2 2.2 81 32 5 64.4 98.34     LegendNANA
22:00 Legend Double Dagger 6.0 2.1 76 9 4 64.4 98.37     Clear
23:00 Legend Double Dagger 3.3 0.7 83 9 5 64.4 98.38     LegendNANA

Notes on Data Quality.

Legend

  • E = Estimated
  • M = Missing
  • NA = Not Available
  • ‡ = Partner data that is not subject to review by the National Climate Archives
Date modified: